Regional Weather Roundup
Issued by NWS

Home | Current Version | Previous Version | Graphics & Text | Print | Product List | Glossary On
Versions: 1 2 3 4 5 6 7 8 9 10 11 12 13 14 15 16 17 18 19 20 21 22 23 24 25 26 27 28 29 30 31 32 33 34 35 36 37 38 39 40 41 42 43 44 45 46 47 48 49 50
627
ASUS43 KLMK 270710
RWRKY
KENTUCKY REGIONAL WEATHER ROUNDUP
NATIONAL WEATHER SERVICE LOUISVILLE KY
300 AM EDT WED JUL 27 2016

NOTE "FAIR" INDICATES FEW OR NO CLOUDS BELOW 12,000 FEET
WITH NO SIGNIFICANT WEATHER AND/OR OBSTRUCTIONS TO VISIBILITY.

KYZ001>023-026-027-061>063-070>075-270800-
WESTERN AND SOUTH CENTRAL KENTUCKY

CITY           SKY/WX    TMP DP  RH WIND       PRES   REMARKS
PADUCAH        CLOUDY    76  73  91 NE3       29.96F
HENDERSON      PTCLDY    73  72  94 CALM      29.96S
OWENSBORO      PTCLDY    76  76 100 CALM      29.97F FOG
HOPKINSVILLE   PTCLDY    77  75  93 CALM      29.97S
BOWLING GREEN  CLOUDY    81  77  88 CALM      29.98S
GLASGOW        CLOUDY    76  76 100 CALM      29.99R
$$

KYZ024-025-028>034-038-045-046-053-270800-
NORTH CENTRAL KENTUCKY

CITY           SKY/WX    TMP DP  RH WIND       PRES   REMARKS
LOUISVILLE/SDF PTCLDY    79  72  79 E3        29.98S
LOUISVILLE/LOU CLEAR     77  71  82 NE3       29.99S
FORT KNOX      CLEAR     73  72  98 NE1       29.97F
$$

KYZ035>037-039>044-047>052-055>060-089>105-270800-
NORTHEAST KENTUCKY

CITY           SKY/WX    TMP DP  RH WIND       PRES   REMARKS
LEXINGTON      CLEAR     75  71  87 CALM      30.00F
COVINGTON      CLOUDY    75  74  96 CALM      30.00F
FRANKFORT      CLEAR     74  71  91 CALM      29.98F
$$

KYZ054-064>069-076>088-106>120-270800-
SOUTHEAST KENTUCKY

CITY           SKY/WX    TMP DP  RH WIND       PRES   REMARKS
JACKSON        CLEAR     74  71  91 CALM      30.02F
LONDON         CLEAR     76  72  87 CALM      30.02S
SOMERSET       CLEAR     73  73 100 CALM      30.02S
MIDDLESBORO    PTCLDY    73  72  97 CALM      30.03F
MONTICELLO     SUNNY    N/A N/A N/A CALM      30.02S
$$





USA.gov is the U.S. government's official web portal to all federal, state and local government web resources and services.